Weather History for PALU - October, 2012

Change the Weather History Date:

Monday, October 29, 2012

  Actual Average Record
Temperature  
Mean Temperature 24 °F -  
Max Temperature 26 °F 23 °F 42 °F (2003)
Min Temperature 21 °F 15 °F -2 °F (2001)
Degree Days  
Heating Degree Days 42    
Moisture  
Dew Point 19 °F    
Average Humidity 80    
Maximum Humidity 93    
Minimum Humidity 59    
Precipitation  
Precipitation 0.00 in - - ()
Sea Level Pressure  
Sea Level Pressure 30.28 in    
Wind  
Wind Speed - (North)    
Max Wind Speed -    
Max Gust Speed -    
Visibility 6 miles    
Events Rain , Snow    
Averages and records for this station are not official NWS values.
T = Trace of Precipitation, MM = Missing Value Source: NWS Daily Summary

Daily Weather History Graph

Daily Weather History Graph

Search for Another Location

Airport or City:

Trip Planner

Search our weather history database for the weather conditions in past years. The results will help you decide how hot, cold, wet, or windy it might be!

Date:

Astronomy

Oct. 29, 2012 Rise Set
Actual Time 11:13 AM AKDT 6:21 PM AKDT
Civil Twilight 10:06 AM AKDT 7:28 PM AKDT
Nautical Twilight 8:57 AM AKDT 8:37 PM AKDT
Astronomical Twilight 7:50 AM AKDT 9:44 PM AKDT
Moon 5:44 PM AKDT (10/29) 11:45 AM AKDT (10/29)
Length of Visible Light 9h 21m
Length of Day
7h 07m
Full, 100% of the Moon is Illuminated
Oct 29
Full
Nov 6
Last Quarter
Nov 13
New
Nov 20
First Quarter
Nov 28
Full

Hourly Weather History & Observations

Time (AKDT) Temp. Dew Point Humidity Pressure Visibility Wind Dir Wind Speed Gust Speed Precip Events Conditions
12:21 AM 26.6 °F 17.6 °F 69% 30.24 in 10.0 mi North - - N/A Snow Light Snow Showers
12:46 AM 26.6 °F 19.4 °F 74% 30.24 in 10.0 mi North - - N/A Snow Light Snow Showers
1:31 AM 24.8 °F 21.2 °F 86% 30.25 in 1.2 mi North - - N/A Snow Light Snow Showers
1:55 AM 24.8 °F 21.2 °F 86% 30.25 in 3.0 mi North - - N/A Snow Light Snow
1:56 AM 24.8 °F 21.2 °F 86% 30.25 in 2.5 mi North - - N/A Snow Light Snow
2:55 AM 24.3 °F 18.3 °F 78% 30.25 in 4.0 mi North - - N/A Snow Light Snow
3:26 AM 23.0 °F 21.2 °F 93% 30.25 in 3.0 mi North - - N/A Snow Light Snow
3:51 AM 24.8 °F 21.2 °F 86% 30.25 in 4.0 mi North - - N/A Snow Light Snow Showers
3:55 AM 24.8 °F 19.8 °F 81% 30.24 in 4.0 mi North - - N/A Snow Light Snow Showers
4:20 AM 24.8 °F 15.8 °F 69% 30.24 in 10.0 mi North - - N/A Snow Light Snow Showers
4:45 AM 24.8 °F 19.4 °F 80% 30.24 in 8.0 mi North - - N/A Snow Light Snow Showers
4:55 AM 23.2 °F 18.7 °F 83% 30.25 in 3.0 mi North - - N/A Snow Light Snow Showers
5:10 AM 24.8 °F 17.6 °F 74% 30.25 in 10.0 mi North - - N/A Snow Light Snow Showers
5:35 AM 23.0 °F 19.4 °F 86% 30.25 in 3.0 mi North - - N/A   Mostly Cloudy
5:55 AM 24.4 °F 15.1 °F 68% 30.25 in 10.0 mi North - - N/A Snow Light Snow Showers
6:00 AM 24.8 °F 12.2 °F 59% 30.24 in 10.0 mi North - - N/A   Mostly Cloudy
6:25 AM 24.8 °F 15.8 °F 69% 30.25 in 10.0 mi North - - N/A Rain Light Freezing Rain
6:55 AM 22.8 °F 18.1 °F 82% 30.25 in 6.0 mi North - - N/A Snow Light Snow
7:10 AM 24.8 °F 15.8 °F 69% 30.25 in 10.0 mi North - - N/A Rain Light Freezing Rain
7:35 AM 23.0 °F 17.6 °F 80% 30.25 in 8.0 mi North - - N/A Snow Light Snow
7:55 AM 23.7 °F 13.8 °F 66% 30.25 in 10.0 mi North - - N/A   Mostly Cloudy
8:20 AM 24.8 °F 19.4 °F 80% 30.25 in 10.0 mi North - - N/A Rain Light Freezing Rain
8:45 AM 23.0 °F 19.4 °F 86% 30.25 in 2.5 mi North - - N/A Snow Light Snow
8:55 AM 21.6 °F 19.6 °F 92% 30.26 in 1.2 mi North - - N/A Snow Light Snow
9:10 AM 23.0 °F 17.6 °F 80% 30.26 in 10.0 mi North - - N/A Snow Light Snow Showers
9:35 AM 23.0 °F 15.8 °F 74% 30.26 in 10.0 mi North - - N/A Snow Light Snow
9:55 AM 22.3 °F 18.7 °F 86% 30.27 in 3.0 mi North - - N/A Snow Light Snow
10:00 AM 23.0 °F 17.6 °F 80% 30.26 in 6.0 mi North - - N/A Snow Light Snow
10:25 AM 23.0 °F 12.2 °F 63% 30.27 in 10.0 mi North - - N/A Rain Light Freezing Rain
10:50 AM 23.0 °F 17.6 °F 80% 30.28 in 9.0 mi North - - N/A Snow Light Snow
10:55 AM 22.5 °F 15.3 °F 74% 30.28 in 10.0 mi North - - N/A Snow Light Snow
11:20 AM 23.0 °F 19.4 °F 86% 30.29 in 2.5 mi North - - N/A Snow Light Snow Showers
11:45 AM 23.0 °F 17.6 °F 80% 30.29 in 4.0 mi North - - N/A Snow Light Snow Showers
11:55 AM 22.6 °F 15.8 °F 75% 30.29 in 5.0 mi North - - N/A Snow Light Snow
12:30 PM 23.0 °F 15.8 °F 74% 30.30 in 10.0 mi North - - N/A   Mostly Cloudy
12:55 PM 23.5 °F 16.9 °F 76% 30.31 in 10.0 mi North - - N/A Rain Light Freezing Rain
1:15 PM 23.0 °F 19.4 °F 86% 30.30 in 4.0 mi North - - N/A   Light Ice Pellets
1:40 PM 23.0 °F 21.2 °F 93% 30.31 in 2.0 mi North - - N/A Snow Light Snow
1:55 PM 24.3 °F 17.8 °F 76% 30.31 in 7.0 mi North - - N/A Snow Light Snow Showers
2:05 PM 24.8 °F 21.2 °F 86% 30.32 in 2.5 mi North - - N/A Rain Light Freezing Rain
2:30 PM 24.8 °F 19.4 °F 80% 30.32 in 6.0 mi North - - N/A Snow Light Snow
2:55 PM 24.4 °F 20.8 °F 86% 30.32 in 3.0 mi North - - N/A Snow Light Snow
3:15 PM 24.8 °F 21.2 °F 86% 30.32 in 3.0 mi North - - N/A Snow Light Snow
3:40 PM 24.8 °F 19.4 °F 80% 30.33 in 2.5 mi North - - N/A Rain Light Freezing Rain
3:55 PM 23.9 °F 21.6 °F 91% 30.33 in 1.2 mi North - - N/A   Light Ice Pellets
4:05 PM 24.8 °F 17.6 °F 74% 30.33 in 4.0 mi North - - N/A Snow Light Snow
4:30 PM 24.8 °F 19.4 °F 80% 30.35 in 4.0 mi North - - N/A Snow Light Snow
4:55 PM 24.1 °F 16.9 °F 74% 30.35 in 8.0 mi North - - N/A Snow Light Snow Showers
5:15 PM 24.8 °F 21.2 °F 86% 30.35 in 6.0 mi North - - N/A Rain Light Freezing Rain
5:55 PM 24.6 °F 20.7 °F 85% 30.36 in 2.0 mi North - - N/A Snow Light Snow
6:00 PM 24.8 °F 21.2 °F 86% 30.36 in 3.0 mi North - - N/A Snow Light Snow
6:25 PM 24.8 °F 23.0 °F 93% 30.36 in 1.8 mi North - - N/A Snow Light Snow
6:50 PM 24.8 °F 21.2 °F 86% 30.36 in 2.0 mi North - - N/A Snow Light Snow
6:55 PM 25.0 °F 22.1 °F 89% 30.37 in 2.0 mi North - - N/A Snow Light Snow